FW2654 Weather Reports


time (UTC)temp
C
wind
direction
speed
KPH
gust
KPH
rain 1hr
cm
rain 24hr
cm
rain mn
cm
humidity
%
barometer
mb
20260505041750 19 268 0.0 0.0 0.00 0.00 0.00 62 1005.7
20260505041248 19 273 0.0 0.0 0.00 0.00 0.00 62 1005.8
20260505041007 19 160 0.0 0.0 0.00 0.00 0.00 62 1005.8
20260505040250 19 107 0.0 0.0 0.00 0.00 0.00 62 1005.9
20260505035750 19 171 0.0 0.0 0.00 0.00 0.00 62 1005.9
20260505035245 19 144 0.0 0.0 0.00 0.00 0.00 62 1005.9
20260505034738 19 194 0.0 0.0 0.00 0.00 0.00 62 1005.9
20260505034233 19 202 0.0 0.0 0.00 0.00 0.00 62 1005.8
20260505033947 19 145 0.0 0.0 0.00 0.00 0.00 62 1005.8
20260505033221 19 285 0.0 0.0 0.00 0.00 0.00 63 1005.9
20260505032714 19 155 0.0 0.0 0.00 0.00 0.00 63 1005.7
20260505032209 19 155 0.0 0.0 0.00 0.00 0.00 63 1005.8
20260505031703 19 105 0.0 0.0 0.00 0.00 0.00 63 1005.8
20260505031639 19 155 0.0 0.0 0.00 0.00 0.00 63 1005.8
20260505030651 19 246 0.0 0.0 0.00 0.00 0.00 63 1005.7
20260505030407 19 134 0.0 0.0 0.00 0.00 0.00 62 1005.7
20260505025640 19 161 0.0 0.0 0.00 0.00 0.00 62 1005.6
20260505025133 19 136 0.0 0.0 0.00 0.00 0.00 61 1005.5
20260505024627 19 185 0.0 0.0 0.00 0.00 0.00 61 1005.5
20260505024121 19 74 0.0 0.0 0.00 0.00 0.00 61 1005.4
20260505023614 19 202 0.0 0.0 0.00 0.00 0.00 60 1005.2
20260505023109 20 203 0.0 0.0 0.00 0.00 0.00 60 1005.2
20260505022602 20 146 0.0 0.0 0.00 0.00 0.00 60 1005.2
20260505022056 20 110 0.0 0.0 0.00 0.00 0.00 59 1005.1
20260505021812 20 155 0.0 0.0 0.00 0.00 0.00 59 1005.1
20260505021045 20 129 0.0 0.0 0.00 0.00 0.00 59 1005.0
20260505020538 20 199 0.0 0.0 0.00 0.00 0.00 59 1004.9
20260505020033 20 199 0.0 0.0 0.00 0.00 0.00 58 1004.9
20260505015749 20 177 0.0 0.0 0.00 0.00 0.00 58 1004.9
20260505015021 20 173 0.0 0.0 0.00 0.00 0.00 58 1004.9
20260505014515 20 177 0.0 0.0 0.00 0.00 0.00 57 1004.9
20260505014008 20 150 0.0 0.0 0.00 0.00 0.00 57 1004.8
20260505013721 20 136 0.0 0.0 0.00 0.00 0.00 56 1004.8
20260505012956 20 131 0.0 0.0 0.00 0.00 0.00 55 1004.8
20260505012451 21 159 0.0 0.0 0.00 0.00 0.00 55 1004.7
20260505011944 21 152 0.0 0.0 0.00 0.00 0.00 54 1004.7
20260505011439 21 128 0.0 0.0 0.00 0.00 0.00 54 1004.6
20260505010932 21 134 0.0 0.0 0.00 0.00 0.00 53 1004.6
20260505010649 21 101 0.0 0.0 0.00 0.00 0.00 53 1004.6
20260505005921 21 333 0.0 0.0 0.00 0.00 0.00 52 1004.5
20260505005414 21 157 0.0 0.0 0.00 0.00 0.00 52 1004.5
20260505004909 21 136 0.0 0.0 0.00 0.00 0.00 51 1004.5
20260505004631 22 169 0.0 0.0 0.00 0.00 0.00 50 1004.5
20260505003857 22 90 0.0 0.0 0.00 0.00 0.00 50 1004.5
20260505003351 22 38 0.0 0.0 0.00 0.00 0.00 49 1004.5
20260505002844 22 305 0.0 0.0 0.00 0.00 0.00 49 1004.5
20260505002338 22 19 0.0 0.0 0.00 0.00 0.00 48 1004.6
20260505002317 22 296 0.0 0.0 0.00 0.00 0.00 48 1004.6
20260505001606 22 86 0.0 0.0 0.00 0.00 0.00 48 1004.7
20260505000835 22 5 0.0 0.0 0.00 0.00 0.00 48 1004.7
20260505000332 23 311 0.0 0.0 0.00 0.00 0.00 47 1004.7
20260504235832 23 256 0.0 0.0 0.00 0.00 0.00 46 1004.8
20260504235333 23 347 0.0 0.0 0.00 0.00 0.00 46 1004.7
20260504234833 23 225 0.0 0.0 0.00 0.00 0.00 46 1004.8
20260504234333 23 273 0.0 0.0 0.00 0.00 0.00 46 1005.0
20260504233832 23 237 0.0 0.0 0.00 0.00 0.00 45 1005.0
20260504233330 23 84 0.0 0.0 0.00 0.00 0.00 45 1005.1
20260504232830 23 284 0.0 0.0 0.00 0.00 0.00 45 1005.0
20260504232329 23 273 0.0 0.0 0.00 0.00 0.00 45 1004.9
20260504231825 23 189 0.0 0.0 0.00 0.00 0.00 45 1004.9
20260504231545 23 163 0.0 0.0 0.00 0.00 0.00 46 1004.9
20260504230825 23 299 0.0 0.0 0.00 0.00 0.00 50 1005.1
20260504230556 23 270 0.0 0.0 0.00 0.00 0.00 52 1005.0
20260504230024 23 156 0.0 0.0 0.00 0.00 0.00 52 1005.1
20260504225912 23 182 0.0 0.0 0.00 0.00 0.00 53 1005.1
20260504224815 23 95 0.0 0.0 0.00 0.00 0.00 52 1005.2
20260504224310 23 35 0.0 0.0 0.00 0.00 0.00 52 1005.2
20260504223809 23 103 0.0 0.0 0.00 0.00 0.00 51 1005.3
20260504223310 23 328 0.0 0.0 0.00 0.00 0.00 51 1005.5
20260504223036 23 82 0.0 0.0 0.00 0.00 0.00 50 1005.4
20260504222307 23 123 0.0 0.0 0.00 0.00 0.00 50 1005.4
20260504222030 23 277 0.0 0.0 0.00 0.00 0.00 49 1005.3
20260504221308 23 159 0.0 0.0 0.00 0.00 0.00 49 1005.3
20260504221032 23 305 0.0 0.0 0.00 0.00 0.00 50 1005.3
20260504220309 23 165 0.0 0.0 0.00 0.00 0.00 50 1005.2
20260504215806 23 200 0.0 0.0 0.00 0.00 0.00 50 1005.7
20260504215307 23 288 0.0 0.0 0.00 0.00 0.00 50 1005.9
20260504214806 23 225 0.0 0.0 0.00 0.00 0.00 48 1005.9
20260504214538 23 258 0.0 0.0 0.00 0.00 0.00 49 1005.9
20260504214025 23 259 0.0 0.0 0.00 0.00 0.00 48 1005.9
20260504213523 23 192 0.0 0.0 0.00 0.00 0.00 48 1006.0
20260504212803 24 277 0.0 0.0 0.00 0.00 0.00 50 1006.0
20260504212304 23 199 0.0 0.0 0.00 0.00 0.00 49 1006.0
20260504211802 23 194 0.0 0.0 0.00 0.00 0.00 50 1006.1
20260504211301 23 228 0.0 0.0 0.00 0.00 0.00 50 1006.2
20260504210802 23 252 0.0 0.0 0.00 0.00 0.00 50 1006.4
20260504210301 23 263 0.0 0.0 0.00 0.00 0.00 51 1006.4
20260504205803 23 138 0.0 0.0 0.00 0.00 0.00 51 1006.4
20260504205304 23 274 0.0 0.0 0.00 0.00 0.00 49 1006.4
20260504204801 23 123 0.0 0.0 0.00 0.00 0.00 51 1006.5
20260504204306 23 220 0.0 0.0 0.00 0.00 0.00 50 1006.6
20260504203805 23 279 0.0 0.0 0.00 0.00 0.00 50 1006.8
20260504203305 23 166 0.0 0.0 0.00 0.00 0.00 50 1006.7
20260504202805 23 284 0.0 0.0 0.00 0.00 0.00 49 1006.7
20260504202304 24 294 0.0 0.0 0.00 0.00 0.00 48 1006.6
20260504201802 24 146 0.0 0.0 0.00 0.00 0.00 50 1006.7
20260504201302 23 317 0.0 0.0 0.00 0.00 0.00 51 1006.7
20260504200802 23 258 0.0 0.0 0.00 0.00 0.00 53 1006.8
20260504200301 23 203 0.0 0.0 0.00 0.00 0.00 53 1006.8
20260504195802 22 151 0.0 0.0 0.00 0.00 0.00 55 1006.9
20260504195304 22 138 0.0 0.0 0.00 0.00 0.00 58 1007.1
20260504194803 22 122 0.0 0.0 0.00 0.00 0.00 58 1007.3
20260504194302 21 222 0.0 0.0 0.00 0.00 0.00 59 1007.4
20260504193801 21 244 0.0 0.0 0.00 0.00 0.00 59 1007.7
20260504193302 21 86 0.0 0.0 0.00 0.00 0.00 60 1007.5
20260504192801 21 87 0.0 0.0 0.00 0.00 0.00 60 1007.3
20260504192301 20 344 0.0 0.0 0.00 0.00 0.00 61 1008.1
20260504191754 20 351 0.0 0.0 0.00 0.00 0.00 61 1008.3
20260504191255 20 28 0.0 0.0 0.00 0.00 0.00 62 1008.0
20260504190752 20 355 0.0 0.0 0.00 0.00 0.00 61 1008.3
20260504190253 20 77 0.0 0.0 0.00 0.00 0.00 60 1008.4
20260504185753 20 175 0.0 0.0 0.00 0.00 0.00 60 1008.6
20260504185252 20 327 0.0 0.0 0.00 0.00 0.00 60 1008.4
20260504184752 20 220 0.0 0.0 0.00 0.00 0.00 59 1008.4
20260504184250 20 80 0.0 0.0 0.00 0.00 0.00 58 1008.3
20260504183750 20 221 0.0 0.0 0.00 0.00 0.00 58 1008.2
20260504183248 21 234 0.0 0.0 0.00 0.00 0.00 58 1008.1
20260504182748 21 152 0.0 0.0 0.00 0.00 0.00 57 1007.9
20260504182249 21 331 0.0 0.0 0.00 0.00 0.00 58 1007.8
20260504181747 21 149 0.0 0.0 0.00 0.00 0.00 56 1007.5
20260504181249 21 140 0.0 0.0 0.00 0.00 0.00 56 1007.5
20260504180748 21 167 0.0 0.0 0.00 0.00 0.00 57 1007.2
20260504180248 21 92 0.0 0.0 0.00 0.00 0.00 58 1007.2
20260504175746 21 0 0.0 0.0 0.00 0.00 0.00 59 1007.2
20260504175246 21 273 0.0 0.0 0.00 0.00 0.00 61 1007.3
20260504174959 20 172 0.0 0.0 0.00 0.00 0.00 60 1007.2
20260504174232 20 195 0.0 0.0 0.00 0.00 0.00 60 1007.4
20260504173953 20 313 0.0 0.0 0.00 0.00 0.00 59 1007.7
20260504173220 20 146 0.0 0.0 0.00 0.00 0.00 62 1007.8
20260504172713 20 271 0.0 0.0 0.00 0.00 0.00 61 1007.4
20260504172655 20 184 0.0 0.0 0.00 0.00 0.00 60 1007.1
20260504171701 20 138 0.0 0.0 0.00 0.00 0.00 59 1007.4
20260504171156 20 202 0.0 0.0 0.00 0.00 0.00 61 1007.4
20260504170916 20 72 0.0 0.0 0.00 0.00 0.00 63 1007.5
20260504170144 20 93 0.0 0.0 0.00 0.00 0.00 61 1007.9
20260504150932 17 287 0.0 0.0 0.00 0.00 0.00 64 1008.6
20260504150425 17 179 0.0 0.0 0.00 0.00 0.00 64 1008.3
20260504141325 16 265 0.0 0.0 0.00 0.00 0.00 67 1008.8
20260504140819 15 180 0.0 0.0 0.00 0.00 0.00 68 1008.9
20260504140805 15 142 0.0 0.0 0.00 0.00 0.00 66 1008.9
20260504130708 13 156 0.0 0.0 0.00 0.00 0.00 71 1009.2
20260504130202 13 103 0.0 0.0 0.00 0.00 0.00 71 1009.2
20260504120125 11 9 0.0 0.0 0.00 0.00 0.00 71 1009.1
20260504110114 10 98 0.0 0.0 0.00 0.00 0.00 71 1009.0
20260504100552 10 194 0.0 0.0 0.00 0.00 0.00 70 1009.3
20260504081542 11 164 0.0 0.0 0.00 0.00 0.00 64 1009.9
20260504081041 11 203 0.0 0.0 0.00 0.00 0.00 64 1009.9
20260504080542 11 128 0.0 0.0 0.00 0.00 0.00 64 1009.9
20260504080308 11 169 0.0 0.0 0.00 0.00 0.00 63 1010.0
20260504050257 10 113 0.0 0.0 0.00 0.00 0.00 64 1011.5
20260504045751 10 98 0.0 0.0 0.00 0.00 0.00 64 1011.5
20260504045507 10 74 0.0 0.0 0.00 0.00 0.00 63 1011.6
20260504045006 11 73 0.0 0.0 0.00 0.00 0.00 63 1011.6
20260504044232 11 66 0.0 0.0 0.00 0.00 0.00 62 1011.7
20260504043727 11 65 0.0 0.0 0.00 0.00 0.00 62 1011.7
20260504043221 11 67 0.0 0.0 0.00 0.00 0.00 61 1011.6
20260504042715 11 0 0.0 0.0 0.00 0.00 0.00 60 1011.7
20260504042429 11 0 0.0 0.0 0.00 0.00 0.00 59 1011.7